Tracking 19247 objects as of 24-Sep-2018
HD Live streaming from Space Station
objects crossing your sky now

ANNA 1B

Track ANNA 1B now!
10-day predictions
ANNA 1B is classified as:


NORAD ID: 446
Int'l Code: 1962-060A
Perigee: 1,081.5 km
Apogee: 1,186.7 km
Inclination: 50.1 °
Period: 107.8 minutes
Semi major axis: 7505 km
RCS: 0.8414 m2 (medium)
Launch date: October 31, 1962
Source: United States (US)
Launch site: AIR FORCE EASTERN TEST RANGE (AFETR)
aabbcc
Your satellite tracking list
Your tracking list is empty




NASA's NSSDC Master Catalog

Two Line Element Set (TLE):
1   446U 62060A   18266.61139271 -.00000129 +00000-0 -73273-5 0  9992
2   446 050.1423 120.1074 0070044 275.1765 116.1419 13.35265454726460
Source of the keplerian elements: AFSPC